This is the latest recevied weather packets stored in our database for station/object DL9GJ-6. If no packets are shown the sender has not sent any weather packets the latest 10 day(s).
| Time | Temp. | Humidity | Pressure | Rain* | Wind** | Luminosity | Snow |
|---|---|---|---|---|---|---|---|
| 1777789224 | 11.67° C | 80% | 1015.2 hPa | 0 mm | - | 386 W/m² | - |
| 1777788864 | 10.56° C | 83% | 1015.1 hPa | 0 mm | - | 330 W/m² | - |
| 1777788504 | 10.56° C | 84% | 1015.2 hPa | 0 mm | - | 268 W/m² | - |
| 1777788144 | 10° C | 85% | 1015.2 hPa | 0 mm | - | 243 W/m² | - |
| 1777787783 | 9.44° C | 87% | 1015.2 hPa | 0 mm | - | 257 W/m² | - |
| 1777787424 | 8.89° C | 88% | 1015.1 hPa | 0 mm | - | 269 W/m² | - |
| 1777787065 | 7.78° C | 90% | 1015.1 hPa | 0 mm | - | 217 W/m² | - |
| 1777787051 | 7.78° C | 90% | 1015.1 hPa | 0 mm | - | 217 W/m² | - |
| 1777786704 | 7.22° C | 90% | 1015.2 hPa | 0 mm | - | 209 W/m² | - |
| 1777786344 | 6.67° C | 90% | 1015.2 hPa | 0 mm | - | 154 W/m² | - |
| 1777786331 | 6.67° C | 90% | 1015.2 hPa | 0 mm | - | 154 W/m² | - |
| 1777785985 | 6.67° C | 91% | 1015.3 hPa | 0 mm | - | 173 W/m² | - |
| 1777785974 | 6.67° C | 91% | 1015.3 hPa | 0 mm | - | 173 W/m² | - |
| 1777785625 | 6.11° C | 90% | 1015.2 hPa | 0 mm | - | 136 W/m² | - |
| 1777785612 | 6.11° C | 90% | 1015.2 hPa | 0 mm | - | 136 W/m² | - |
| 1777785264 | 5.56° C | 90% | 1015.2 hPa | 0 mm | - | 33 W/m² | - |
| 1777784905 | 5.56° C | 90% | 1015.2 hPa | 0 mm | - | 31 W/m² | - |
| 1777784891 | 5.56° C | 90% | 1015.2 hPa | 0 mm | - | 31 W/m² | - |
| 1777784544 | 5.56° C | 90% | 1015.2 hPa | 0 mm | - | 27 W/m² | - |
| 1777784184 | 5.56° C | 90% | 1015.3 hPa | 0 mm | - | 26 W/m² | - |
| 1777784177 | 5.56° C | 90% | 1015.3 hPa | 0 mm | - | 26 W/m² | - |
| 1777783824 | 5.56° C | 90% | 1015.3 hPa | 0 mm | - | 24 W/m² | - |
| 1777783812 | 5.56° C | 90% | 1015.3 hPa | 0 mm | - | 24 W/m² | - |
| 1777783465 | 5.56° C | 90% | 1015.3 hPa | 0 mm | - | 19 W/m² | - |
| 1777783105 | 5° C | 90% | 1015.3 hPa | 0 mm | - | 16 W/m² | - |
* Rain latest hour (hover to see other rain measurements)
** Current wind speed in m/s (hover to see current wind gust speed)